Showing default

IRIDIUM 155, 43573

Orbit data source: Space-Track

IRIDIUM 155, 43573 is a payload satellite owned by Iridium (US) in LEO that was launched on Wed, 25 Jul 2018 UTC via an FALCON 9 launch vehicle from the Air Force Western Test Range (AFWTR). Payload-class satellites include a variety of spacecraft equipped with specific instruments for various scientific and technological missions. These include communications satellites like Starlink; space stations such as the ISS; scientific satellites like the Hubble; Earth observation satellites from companies like Planet Labs, Umbra, and HawkEye 360; GPS; miniature CubeSats for education and research; and military/defense satellites.

Loading next visibility...
Identifier
43573, 2018-061E
Orbit
LEO
Country
Flag of USUS
Related business
Manufacturer
NGIS SSG Gilbert
Mission
Operational Commercial Communications
Bus & Motor
ELITEBUS, Unknown motor
Mass
860 kg wet, 700 kg dry
Launch date (UTC)
2018-07-25 (7 years ago)
Launch vehicle
FALCON 9
Launch site
Air Force Western Test Range (AFWTR)
Object type
Payload
Rocket body
Debris
Shape & HBR
Trap Box + 2 Pan, 4.8 m
Radar Cross Section
10.154 m², Large (>1 m²)

Expand to show TLE details & history
Last TLE update: 22 hours ago

TLE from 22 hours ago
0 IRIDIUM 155
1 43573U 18061E   25304.61918917  .00000131  00000-0  39758-4 0  9995
2 43573  86.3978 152.2336 0002011  83.3691 276.7734 14.34220895380590
Epoch: 2025-10-31T14:51Z
TLE epoch observation values (Epoch: 2025-10-31T14:51:37.944Z)
Latitude
0.00002°
Longitude
-110.83552°
Altitude
780.538 km
Speed
7.464 km/s
True Right ascension
10h 08m 56s
True Declination
0° 00' 00"
Sunlit
Object was in daylight at epoch
Visualization orbit readout
Latitude
Unknown
Longitude
Unknown
Altitude
Unknown
Speed
Unknown
Apparent Right ascension
Unknown
Apparent Declination
Unknown
Sunlit
N/A
Visualization observer readout
Local Sidereal Time
08:20:18
Azimuth
Unknown
Elevation
Unknown
Doppler factor
Unknown
Orbital elements
Apogee altitude
776.06 km
Perigee altitude
773.183 km
Semi-major axis
7,152.758 km
Eccentricity
0.0002
Inclination
86.3978°
RAAN
152.2336°
Arg. of periapsis
83.3691°
True anomaly
276.75052°
Mean anomaly
276.7734°
Eccentric anomaly
276.76196°
Mean motion
3.58784 °/min
Orbital period
100.34 mins
BSTAR
0.000039758
Loading maneuver chart data...
Computing Atmospheric mass density...
Loading historical data...
Loading historical data...
Loading historical data...
Loading historical data...
Loading historical data...
Loading historical data...
Loading historical data...

Documentation

Showing up to 5 results
|